EDT,Max TemperatureF,Mean TemperatureF,Min TemperatureF,Max Dew PointF,MeanDew PointF,Min DewpointF,Max Humidity, Mean Humidity, Min Humidity, Max Sea Level PressureIn, Mean Sea Level PressureIn, Min Sea Level PressureIn, Max VisibilityMiles, Mean VisibilityMiles, Min VisibilityMiles, Max Wind SpeedMPH, Mean Wind SpeedMPH, Max Gust SpeedMPH,PrecipitationIn, CloudCover, Events, WindDirDegrees
2011-10-1,59,49,39,38,36,34,85,61,37,30.20,30.13,30.04,10,10,10,20,10,26,0.00,2,,344
2011-10-2,66,51,35,40,33,26,92,56,20,30.23,30.17,30.10,10,10,10,13,7,22,0.00,0,,334
2011-10-3,73,54,35,43,41,39,89,60,31,30.19,30.16,30.12,10,10,10,16,4,21,0.00,0,,320
2011-10-4,77,58,38,48,41,36,92,59,25,30.30,30.24,30.19,10,10,10,8,1,12,0.00,0,,-1
2011-10-5,81,62,43,54,46,42,93,60,26,30.30,30.25,30.20,10,10,7,8,2,10,0.00,0,,136
2011-10-6,83,65,47,54,49,45,93,61,28,30.30,30.25,30.22,10,10,9,9,5,16,0.00,0,,124
2011-10-7,85,67,48,54,49,46,89,58,27,30.37,30.30,30.27,10,10,9,9,5,13,0.00,0,,118
2011-10-8,82,66,50,56,52,47,89,64,39,30.39,30.32,30.29,10,10,7,12,4,14,0.00,0,,147
2011-10-9,80,64,48,54,49,46,93,63,32,30.37,30.31,30.23,10,6,0,10,5,14,0.00,0,Fog-Rain,93
2011-10-10,81,67,53,52,50,48,83,59,35,30.23,30.15,30.06,10,10,10,12,5,18,0.00,0,,113
2011-10-11,79,65,50,52,48,46,86,59,32,30.05,29.99,29.92,10,10,10,15,6,22,0.00,1,,103
2011-10-12,68,63,57,55,54,53,86,73,59,29.91,29.84,29.71,10,10,10,14,5,15,0.00,7,,119
2011-10-13,65,61,57,59,56,54,93,86,78,29.70,29.56,29.48,10,8,2,22,6,29,0.19,7,Rain,184
2011-10-14,64,57,49,54,43,38,86,66,46,29.76,29.65,29.54,10,10,10,25,14,35,T,3,Rain,268
2011-10-15,64,56,47,40,37,34,71,53,34,29.96,29.89,29.78,10,10,10,26,15,35,0.00,0,,257
2011-10-16,78,63,48,48,42,36,66,49,32,29.97,29.85,29.73,10,10,10,26,13,35,T,2,,242
2011-10-17,64,53,41,42,34,24,80,52,23,29.96,29.91,29.84,10,10,10,15,8,20,0.04,2,Rain,263
2011-10-18,50,48,45,45,43,39,89,83,76,29.87,29.79,29.73,10,9,2,12,6,20,0.23,8,Rain-Thunderstorm,5
2011-10-19,48,47,45,45,44,43,93,90,86,29.52,29.41,29.32,10,5,1,20,12,24,1.45,8,Rain,324
2011-10-20,45,44,42,43,39,37,92,84,76,29.92,29.56,29.32,10,8,6,26,16,33,0.49,8,Rain,278
2011-10-21,57,46,35,38,36,34,92,70,47,30.11,30.04,29.91,10,10,10,16,6,26,0.00,2,,254
2011-10-22,63,47,31,39,32,28,100,66,32,30.15,30.11,30.06,10,6,0,13,4,20,0.00,0,Fog,193
2011-10-23,65,53,40,49,42,34,79,70,60,30.05,30.02,29.97,10,10,10,14,8,17,0.00,3,,180
2011-10-24,64,52,40,51,44,37,86,63,39,30.18,30.04,29.94,10,10,4,17,7,23,0.05,2,Rain-Thunderstorm,242
2011-10-25,73,56,38,43,39,36,86,58,29,30.19,30.07,29.86,10,10,10,22,11,28,0.00,0,,173
2011-10-26,73,62,51,55,50,41,89,66,42,29.85,29.81,29.75,10,8,2,21,11,26,0.24,6,Rain-Thunderstorm,269
2011-10-27,51,43,35,48,43,35,93,80,66,30.15,29.92,29.80,10,8,2,20,8,23,0.07,7,Rain,348
2011-10-28,54,44,34,39,33,28,96,69,41,30.20,30.14,30.09,10,9,5,8,3,10,0.00,1,,77
2011-10-29,58,46,33,36,30,23,92,60,27,30.15,30.08,30.04,10,10,7,20,5,25,0.00,2,,252
2011-10-30,58,43,28,31,29,25,92,63,33,30.24,30.15,30.07,10,10,10,20,9,24,0.00,2,,164
2011-10-31,61,49,36,42,35,29,89,60,31,30.17,30.06,30.01,10,10,8,16,7,22,0.09,3,Rain,214